Lorain / Elyria, OH

3:49 AM EDT on April 28, 2017 (GMT -0400)
Lorain County Regional

Weather History for KLPR - November, 2012

Change the Weather History Date:

Monday, November 5, 2012

  Actual Average (KCLE) Record (KCLE)
Temperature  
Mean Temperature 39 °F -  
Max Temperature 41 °F 51 °F 76 °F (2015)
Min Temperature 36 °F 36 °F 16 °F (1991)
Degree Days  
Heating Degree Days 26    
Moisture  
Dew Point 30 °F    
Average Humidity 72    
Maximum Humidity 81    
Minimum Humidity 55    
Precipitation  
Precipitation 0.00 in - - ()
Sea Level Pressure  
Sea Level Pressure 30.18 in    
Wind  
Wind Speed 5 mph (NE)    
Max Wind Speed 10 mph    
Max Gust Speed -    
Visibility 10 miles    
Events      
Averages and records for this station are not official NWS values.
T = Trace of Precipitation, MM = Missing Value Source: NWS Daily Summary

Daily Weather History Graph

Daily Weather History Graph

Search for Another Location

Airport or City:

Trip Planner

Search our weather history database for the weather conditions in past years. The results will help you decide how hot, cold, wet, or windy it might be!

Date:

Astronomy

Nov. 05, 2012 Rise Set
Actual Time 7:05 AM EST 5:18 PM EST
Civil Twilight 6:36 AM EST 5:47 PM EST
Nautical Twilight 6:03 AM EST 6:20 PM EST
Astronomical Twilight 5:31 AM EST 6:52 PM EST
Moon 10:55 PM EST (11/5) 12:24 PM EST (11/5)
Length of Visible Light 11h 11m
Length of Day
10h 13m
Waning Gibbous, 63% of the Moon is Illuminated
Nov 5
Waning Gibbous
Nov 6
Last Quarter
Nov 13
New
Nov 20
First Quarter
Nov 28
Full

Hourly Weather History & Observations

Time (EST) Temp. Windchill Dew Point Humidity Pressure Visibility Wind Dir Wind Speed Gust Speed Precip Events Conditions
12:53 AM 37.0 °F 33.3 °F 28.9 °F 73% 30.16 in 10.0 mi WNW 4.6 mph - N/A   Overcast
1:53 AM 37.0 °F 31.6 °F 30.0 °F 76% 30.16 in 10.0 mi WNW 6.9 mph - N/A   Overcast
2:53 AM 37.0 °F 33.3 °F 30.9 °F 79% 30.15 in 10.0 mi WNW 4.6 mph - N/A   Overcast
3:53 AM 37.0 °F - 30.9 °F 79% 30.16 in 10.0 mi Calm Calm - N/A   Overcast
4:22 AM 37.4 °F 34.9 °F 30.2 °F 75% 30.14 in 10.0 mi WNW 3.5 mph - N/A   Overcast
4:53 AM 37.9 °F 34.4 °F 30.0 °F 73% 30.17 in 10.0 mi NNW 4.6 mph - N/A   Overcast
5:51 AM 37.4 °F 30.3 °F 30.2 °F 75% 30.16 in 10.0 mi North 10.4 mph - N/A   Overcast
5:53 AM 37.9 °F 31.5 °F 30.9 °F 76% 30.18 in 10.0 mi North 9.2 mph - N/A   Overcast
6:53 AM 37.9 °F 35.5 °F 30.0 °F 73% 30.18 in 10.0 mi North 3.5 mph - N/A   Overcast
7:19 AM 37.4 °F 32.8 °F 30.2 °F 75% 30.16 in 10.0 mi North 5.8 mph - N/A   Overcast
7:31 AM 37.4 °F 33.8 °F 30.2 °F 75% 30.17 in 10.0 mi ENE 4.6 mph - N/A   Overcast
7:53 AM 37.9 °F 34.4 °F 30.9 °F 76% 30.19 in 10.0 mi ENE 4.6 mph - 0.00 in   Overcast
8:50 AM 37.4 °F - 32.0 °F 81% 30.18 in 10.0 mi Calm Calm - N/A   Overcast
8:53 AM 39.0 °F - 32.0 °F 76% 30.20 in 10.0 mi Calm Calm - N/A   Overcast
9:31 AM 39.2 °F 37.0 °F 30.2 °F 70% 30.18 in 10.0 mi NE 3.5 mph - N/A   Overcast
9:53 AM 39.0 °F 36.8 °F 30.0 °F 70% 30.20 in 10.0 mi NE 3.5 mph - N/A   Overcast
10:53 AM 39.9 °F 35.1 °F 28.0 °F 63% 30.21 in 10.0 mi ENE 6.9 mph - N/A   Overcast
11:02 AM 39.2 °F 35.0 °F 28.4 °F 65% 30.19 in 10.0 mi NE 5.8 mph - N/A   Overcast
11:53 AM 39.9 °F 34.5 °F 28.9 °F 65% 30.21 in 10.0 mi ENE 8.1 mph - N/A   Overcast
12:53 PM 41.0 °F 35.8 °F 28.0 °F 60% 30.19 in 10.0 mi NE 8.1 mph - N/A   Overcast
1:53 PM 41.0 °F - 26.1 °F 55% 30.19 in 10.0 mi Calm Calm - N/A   Overcast
2:53 PM 39.9 °F 34.5 °F 28.0 °F 63% 30.18 in 10.0 mi East 8.1 mph - N/A   Overcast
3:53 PM 39.9 °F 35.1 °F 28.0 °F 63% 30.19 in 10.0 mi ENE 6.9 mph - N/A   Overcast
4:53 PM 39.0 °F 34.8 °F 28.0 °F 65% 30.18 in 10.0 mi ENE 5.8 mph - N/A   Overcast
5:53 PM 37.9 °F 34.4 °F 28.9 °F 70% 30.19 in 10.0 mi ENE 4.6 mph - N/A   Overcast
6:53 PM 37.9 °F - 28.9 °F 70% 30.19 in 10.0 mi Calm Calm - N/A   Overcast
7:53 PM 37.0 °F 33.3 °F 30.0 °F 76% 30.19 in 10.0 mi ESE 4.6 mph - N/A   Overcast
8:53 PM 37.0 °F 34.5 °F 30.0 °F 76% 30.20 in 10.0 mi SSE 3.5 mph - N/A   Overcast
9:53 PM 37.0 °F 33.3 °F 30.0 °F 76% 30.20 in 10.0 mi SSE 4.6 mph - N/A   Overcast
10:53 PM 37.0 °F 34.5 °F 30.0 °F 76% 30.19 in 10.0 mi SE 3.5 mph - N/A   Overcast
11:53 PM 36.0 °F 33.3 °F 30.0 °F 79% 30.18 in 10.0 mi SSE 3.5 mph - N/A   Overcast